1512831600.82,24017,4.69,71742.5,-15.35,-19.99,-24.11,0,*6C
1512831602.09,24018,4.69,71736.8,-15.35,-19.99,-24.25,0,*64
1512831603.38,24019,4.69,71734.3,-15.31,-20.15,-24.25,0,*6F
1512831604.65,24020,4.63,71736.3,-15.35,-19.99,-24.21,0,*6B
1512831605.91,24021,4.69,71740.0,-15.35,-19.99,-24.25,0,*6E
1512831607.14,24022,4.63,71738.3,-15.35,-20.09,-24.31,0,*6B
1512831608.4,24023,4.63,71734.0,-15.35,-20.09,-24.25,0,*6F
1512831609.64,24024,4.69,71738.3,-15.37,-20.05,-24.25,0,*66
1512831610.87,24025,4.69,71738.8,-15.35,-20.09,-24.31,0,*6C
1512831612.16,24026,4.63,71736.3,-15.31,-20.15,-24.25,0,*63
1512831613.42,24027,4.63,71734.8,-15.31,-20.09,-24.25,0,*6F
1512831614.69,24028,4.69,71740.0,-15.35,-19.95,-24.21,0,*6F
1512831615.9,24029,4.69,71740.8,-15.37,-20.05,-24.31,0,*6E
1512831617.14,24030,4.69,71740.8,-15.31,-19.99,-24.31,0,*6F
1512831618.4,24031,4.63,71734.3,-15.31,-20.15,-24.31,0,*60
1512831619.67,24032,4.69,71740.0,-15.35,-19.99,-24.25,0,*6C
1512831620.93,24033,4.69,71740.5,-15.35,-20.09,-24.21,0,*6A
1512831622.17,24034,4.69,71740.3,-15.35,-19.95,-24.31,0,*63
1512831623.44,24035,4.63,71740.3,-15.35,-19.99,-24.25,0,*6B
1512831624.7,24036,4.69,71742.5,-15.35,-19.99,-24.25,0,*68
1512831625.97,24037,4.69,71740.3,-15.35,-19.99,-24.21,0,*6D
1512831627.24,24038,4.69,71742.5,-15.31,-19.99,-24.25,0,*62
1512831628.52,24039,4.69,71738.5,-15.31,-19.95,-24.21,0,*6B
1512831629.79,24040,4.63,71734.8,-15.31,-19.95,-24.21,0,*65
1512831631.03,24041,4.69,71744.8,-15.35,-19.95,-24.05,0,*66
1512831632.29,24042,4.63,71744.3,-15.35,-19.95,-24.11,0,*60
1512831633.55,24043,4.69,71750.5,-15.35,-19.95,-24.11,0,*61
1512831634.81,24044,4.63,71742.8,-15.35,-19.95,-24.11,0,*66
1512831636.08,24045,4.63,71734.8,-15.35,-19.95,-24.21,0,*64
1512831637.34,24046,4.69,71740.0,-15.35,-19.85,-24.05,0,*60
1512831638.58,24047,4.63,71740.8,-15.35,-19.95,-24.05,0,*60
1512831639.86,24048,4.69,71740.3,-15.31,-19.99,-24.21,0,*61
1512831641.12,24049,4.63,71740.5,-15.35,-19.95,-24.11,0,*6B
1512831642.38,24050,4.63,71742.5,-15.35,-19.95,-24.11,0,*63
1512831643.64,24051,4.63,71742.0,-15.35,-19.95,-24.11,0,*62
1512831644.88,24052,4.63,71740.0,-15.31,-19.99,-24.05,0,*6C
1512831646.12,24053,4.63,71740.5,-15.31,-19.95,-24.05,0,*61
1512831647.37,24054,4.63,71740.8,-15.31,-19.99,-24.05,0,*6A
1512831648.63,24055,4.69,71748.3,-15.31,-19.99,-24.11,0,*6E
1512831649.89,24056,4.69,71750.0,-15.31,-19.99,-24.11,0,*6D
1512831651.13,24057,4.63,71742.3,-15.31,-20.09,-24.05,0,*6A
1512831652.38,24058,4.69,71734.3,-15.35,-20.09,-24.11,0,*64
1512831653.62,24059,4.63,71734.3,-15.31,-19.99,-24.05,0,*67
1512831654.88,24060,4.63,71738.8,-15.31,-19.99,-24.11,0,*68
1512831656.15,24061,4.63,71734.3,-15.31,-19.99,-24.21,0,*6A
1512831657.42,24062,4.63,71738.5,-15.31,-20.09,-24.21,0,*6A
1512831658.66,24063,4.63,71740.0,-15.31,-19.95,-24.05,0,*62
1512831659.9,24064,4.63,71742.5,-15.31,-19.99,-24.05,0,*69
1512831661.11,24065,4.63,71738.5,-15.29,-20.05,-24.05,0,*6E
1512831662.37,24066,4.63,71738.0,-15.31,-19.99,-24.11,0,*6E
1512831663.62,24067,4.63,71742.0,-15.31,-19.95,-24.05,0,*66
1512831664.86,24068,4.63,71740.3,-15.31,-19.95,-23.89,0,*6A
1512831666.12,24069,4.63,71740.3,-15.31,-19.99,-23.95,0,*6A
1512831667.36,24070,4.63,71732.5,-15.31,-19.99,-23.89,0,*6F
1512831668.6,24071,4.63,71738.5,-15.31,-19.99,-23.89,0,*6E
1512831669.86,24072,4.63,71742.5,-15.31,-19.99,-23.95,0,*60
1512831671.12,24073,4.63,71740.8,-15.31,-19.99,-23.95,0,*61
1512831672.35,24074,4.63,71740.3,-15.35,-20.09,-23.89,0,*6C
1512831673.61,24075,4.69,71744.8,-15.35,-19.99,-23.95,0,*63
1512831674.85,24076,4.63,71746.0,-15.31,-19.95,-23.89,0,*65
1512831676.09,24077,4.63,71746.8,-15.31,-19.99,-23.89,0,*68
1512831677.32,24078,4.63,71746.0,-15.31,-19.99,-23.89,0,*67
1512831678.56,24079,4.63,71748.0,-15.31,-19.95,-23.89,0,*6A
1512831679.8,24080,4.63,71744.3,-15.31,-19.99,-23.89,0,*60
1512831681.04,24081,4.63,71746.5,-15.31,-19.99,-23.79,0,*6E
1512831682.28,24082,4.69,71744.5,-15.31,-20.09,-23.79,0,*6E
1512831683.52,24083,4.63,71746.0,-15.31,-19.99,-23.79,0,*6C
1512831684.76,24084,4.63,71746.3,-15.31,-19.99,-23.79,0,*6B
1512831686.0,24085,4.63,71748.0,-15.35,-19.99,-23.75,0,*62
1512831687.24,24086,4.63,71750.8,-15.35,-19.99,-23.75,0,*61
1512831688.46,24087,4.63,71748.5,-15.29,-19.91,-23.75,0,*65
1512831689.69,24088,4.69,71752.5,-15.31,-20.09,-23.79,0,*64
1512831690.93,24089,4.63,71750.5,-15.31,-19.99,-23.75,0,*6A
1512831692.18,24090,4.63,71748.0,-15.31,-19.99,-23.75,0,*62
1512831693.42,24091,4.63,71752.0,-15.31,-19.95,-23.75,0,*6F
1512831694.67,24092,4.69,71752.3,-15.31,-19.95,-23.59,0,*62
1512831695.93,24093,4.63,71744.8,-15.35,-19.95,-23.65,0,*68
1512831697.19,24094,4.69,71750.3,-15.35,-19.99,-23.65,0,*63
1512831698.45,24095,4.63,71746.8,-15.35,-19.95,-23.65,0,*6E
1512831699.69,24096,4.63,71748.5,-15.35,-19.95,-23.59,0,*62
1512831700.96,24097,4.63,71742.5,-15.35,-19.95,-23.49,0,*62
1512831702.2,24098,4.69,71748.8,-15.35,-19.95,-23.43,0,*67
1512831703.47,24099,4.69,71750.5,-15.31,-19.95,-23.49,0,*68
1512831704.76,24100,4.69,71746.3,-15.31,-19.85,-23.49,0,*68
1512831706.05,24101,4.63,71736.5,-15.31,-19.85,-23.49,0,*69
1512831707.32,24102,4.63,71736.5,-15.35,-19.95,-23.49,0,*6F
1512831708.58,24103,4.63,71740.8,-15.35,-19.95,-23.33,0,*63
1512831709.85,24104,4.63,71740.0,-15.35,-19.85,-23.43,0,*62
1512831711.13,24105,4.63,71740.5,-15.35,-19.85,-23.33,0,*64
1512831712.41,24106,4.69,71742.3,-15.35,-19.85,-23.29,0,*6C
1512831713.69,24107,4.63,71742.3,-15.35,-19.85,-23.29,0,*6D
1512831714.98,24108,4.69,71744.5,-15.35,-19.85,-23.33,0,*69
1512831716.26,24109,4.63,71740.5,-15.35,-19.85,-23.29,0,*63
1512831717.54,24110,4.63,71740.8,-15.35,-19.81,-23.29,0,*6F
1512831718.78,24111,4.63,71746.3,-15.37,-19.91,-23.33,0,*66
1512831720.06,24112,4.63,71744.5,-15.35,-19.85,-23.29,0,*69
1512831721.34,24113,4.63,71740.5,-15.35,-19.81,-23.19,0,*6F
1512831722.62,24114,4.63,71744.5,-15.35,-19.81,-23.19,0,*68
1512831723.89,24115,4.63,71750.3,-15.35,-19.85,-23.09,0,*6C
1512831725.15,24116,4.63,71748.8,-15.35,-19.85,-23.09,0,*6F
1512831726.41,24117,4.69,71752.5,-15.35,-19.81,-23.09,0,*6A
1512831727.67,24118,4.63,71748.8,-15.31,-19.81,-22.93,0,*63
1512831728.91,24119,4.69,71752.8,-15.35,-19.71,-22.93,0,*69
1512831730.16,24120,4.63,71748.5,-15.35,-19.71,-22.97,0,*67
1512831731.38,24121,4.63,71750.8,-15.37,-19.71,-22.93,0,*60
1512831732.63,24122,4.63,71744.3,-15.35,-19.71,-22.93,0,*61
1512831733.88,24123,4.63,71746.8,-15.35,-19.71,-22.93,0,*60
1512831735.14,24124,4.63,71746.5,-15.35,-19.65,-22.83,0,*63
1512831736.38,24125,4.63,71746.8,-15.35,-19.71,-22.83,0,*67
1512831737.65,24126,4.63,71744.5,-15.35,-19.71,-22.77,0,*6F
1512831738.92,24127,4.63,71744.0,-15.35,-19.71,-22.77,0,*6E
1512831740.14,24128,4.63,71744.3,-15.37,-19.71,-22.83,0,*68
1512831741.41,24129,4.63,71742.3,-15.35,-19.71,-22.77,0,*60
1512831742.68,24130,4.63,71740.0,-15.35,-19.57,-22.67,0,*6D
1512831743.95,24131,4.69,71748.5,-15.35,-19.57,-22.67,0,*6C
1512831745.22,24132,4.63,71744.5,-15.35,-19.57,-22.67,0,*6F
1512831746.46,24133,4.63,71746.0,-15.35,-19.51,-22.67,0,*68
1512831747.7,24134,4.63,71744.5,-15.37,-19.57,-22.67,0,*6B
1512831748.98,24135,4.63,71740.5,-15.35,-19.37,-22.47,0,*6C
1512831750.24,24136,4.63,71740.5,-15.35,-19.41,-22.53,0,*6B
1512831751.54,24137,4.63,71740.0,-15.35,-19.41,-22.47,0,*6F
1512831752.8,24138,4.63,71740.5,-15.35,-19.41,-22.53,0,*65
1512831754.08,24139,4.63,71740.0,-15.35,-19.37,-22.47,0,*60
1512831755.31,24140,4.63,71738.5,-15.37,-19.41,-22.41,0,*6B
1512831756.59,24141,4.63,71738.3,-15.35,-19.27,-22.37,0,*69
1512831757.88,24142,4.69,71742.0,-15.35,-19.23,-22.31,0,*68
1512831759.18,24143,4.63,71736.8,-15.35,-19.27,-22.31,0,*6D
1512831760.49,24144,4.63,71734.3,-15.35,-19.27,-22.17,0,*6E
1512831761.76,24145,4.63,71734.0,-15.37,-19.27,-22.21,0,*68
1512831763.06,24146,4.63,71734.3,-15.35,-19.23,-22.21,0,*6D
1512831764.36,24147,4.63,71738.3,-15.31,-19.27,-22.21,0,*6C
1512831765.65,24148,4.63,71734.5,-15.35,-19.23,-22.17,0,*66
1512831766.92,24149,4.63,71734.5,-15.35,-19.23,-22.11,0,*61
1512831768.17,24150,4.63,71738.8,-15.35,-19.17,-22.03,0,*6D
1512831769.4,24151,4.63,71736.0,-15.35,-19.07,-22.03,0,*6D
1512831770.65,24152,4.63,71738.5,-15.35,-19.07,-22.11,0,*6D
1512831771.88,24153,4.63,71738.3,-15.35,-19.07,-22.03,0,*6F
1512831773.13,24154,4.63,71740.3,-15.35,-19.13,-22.03,0,*6D
1512831774.38,24155,4.63,71738.3,-15.37,-19.23,-22.03,0,*6D
1512831775.6,24156,4.63,71742.0,-15.37,-19.13,-22.03,0,*6D
1512831776.86,24157,4.63,71736.5,-15.35,-19.07,-21.97,0,*65
1512831778.13,24158,4.63,71736.8,-15.35,-19.07,-21.97,0,*6A
1512831779.39,24159,4.63,71734.3,-15.35,-19.07,-21.97,0,*6B
1512831780.65,24160,4.63,71734.8,-15.35,-19.03,-21.97,0,*65
1512831781.91,24161,4.63,71740.0,-15.35,-19.03,-21.97,0,*64
1512831783.18,24162,4.63,71734.8,-15.35,-19.03,-21.87,0,*66
1512831784.4,24163,4.63,71738.8,-15.37,-18.99,-21.93,0,*62
1512831785.69,24164,4.63,71738.8,-15.35,-18.93,-21.83,0,*6C
1512831786.95,24165,4.63,71738.3,-15.35,-19.03,-21.83,0,*65
1512831788.22,24166,4.63,71734.0,-15.35,-19.03,-21.83,0,*66
1512831789.48,24167,4.63,71734.3,-15.31,-19.03,-21.83,0,*63
1512831790.75,24168,4.63,71738.0,-15.35,-19.03,-21.83,0,*68
1512831792.04,24169,4.63,71736.0,-15.35,-18.93,-21.83,0,*61
1512831793.31,24170,4.63,71738.8,-15.35,-19.03,-21.87,0,*65
1512831794.55,24171,4.63,71738.5,-15.37,-18.99,-21.87,0,*64
1512831795.85,24172,4.63,71736.0,-15.35,-18.93,-21.83,0,*6B
1512831797.11,24173,4.63,71730.8,-15.35,-18.93,-21.73,0,*65
1512831798.37,24174,4.63,71734.5,-15.35,-18.93,-21.73,0,*62
1512831799.67,24175,4.63,71734.8,-15.35,-18.93,-21.67,0,*66
1512831800.92,24176,4.63,71736.0,-15.35,-18.89,-21.73,0,*6B
1512831802.18,24177,4.63,71724.3,-15.35,-18.89,-21.73,0,*6A
1512831803.42,24178,4.63,71734.0,-15.37,-18.93,-21.73,0,*6C
1512831804.66,24179,4.63,71732.3,-15.37,-18.93,-21.77,0,*69
1512831805.91,24180,4.63,71726.8,-15.37,-18.99,-21.87,0,*6A
1512831807.17,24181,4.63,71730.3,-15.35,-18.93,-21.73,0,*68
1512831808.47,24182,4.63,71724.3,-15.35,-18.93,-21.67,0,*6E
1512831809.75,24183,4.63,71734.8,-15.35,-18.89,-21.57,0,*67
1512831811.03,24184,4.63,71730.5,-15.35,-18.89,-21.57,0,*60
1512831812.27,24185,4.63,71718.8,-15.37,-18.79,-21.67,0,*6F
1512831813.51,24186,4.63,71714.5,-15.37,-18.93,-21.73,0,*6D
1512831814.79,24187,4.63,71724.8,-15.35,-18.89,-21.57,0,*63
1512831816.08,24188,4.63,71730.5,-15.35,-18.89,-21.67,0,*6F
1512831817.37,24189,4.63,71738.8,-15.35,-18.89,-21.67,0,*6E
1512831818.65,24190,4.63,71740.0,-15.35,-18.89,-21.57,0,*65
1512831819.89,24191,4.63,71740.3,-15.35,-18.73,-21.43,0,*64
1512831821.15,24192,4.63,71734.0,-15.35,-18.79,-21.57,0,*68
1512831822.41,24193,4.63,71728.8,-15.35,-18.79,-21.53,0,*6D
1512831823.68,24194,4.63,71742.0,-15.35,-18.65,-21.27,0,*64
1512831824.93,24195,4.63,71740.0,-15.31,-18.65,-21.39,0,*6E
1512831826.16,24196,4.69,71742.8,-15.35,-18.73,-21.43,0,*63
1512831827.4,24197,4.63,71746.5,-15.35,-18.73,-21.39,0,*6F
1512831828.67,24198,4.63,71742.0,-15.35,-18.65,-21.53,0,*6B
1512831829.93,24199,4.63,71740.5,-15.35,-18.73,-21.53,0,*6D
1512831831.17,24200,4.63,71740.8,-15.35,-18.65,-21.43,0,*68
1512831832.4,24201,4.63,71738.3,-15.35,-18.73,-21.43,0,*6E
1512831833.67,24202,4.63,71740.3,-15.35,-18.79,-21.53,0,*66
1512831834.91,24203,4.63,71742.8,-15.35,-18.79,-21.43,0,*66
1512831836.14,24204,4.63,71744.0,-15.37,-18.83,-21.57,0,*63
1512831837.41,24205,4.63,71748.5,-15.35,-18.79,-21.53,0,*61
1512831838.68,24206,4.63,71748.5,-15.35,-18.79,-21.53,0,*62
1512831839.91,24207,4.63,71734.5,-15.37,-18.79,-21.57,0,*65
1512831841.15,24208,4.63,71718.0,-15.35,-18.65,-21.43,0,*60
1512831842.39,24209,4.63,71732.0,-15.35,-18.73,-21.39,0,*6B
1512831843.65,24210,4.63,71734.8,-15.35,-18.73,-21.53,0,*6F
1512831844.87,24211,4.63,71734.0,-15.37,-18.79,-21.47,0,*63
1512831846.14,24212,4.63,71734.3,-15.35,-18.73,-21.53,0,*6D
1512831847.36,24213,4.63,71740.0,-15.37,-18.79,-21.47,0,*61
1512831848.59,24214,4.63,71736.8,-15.35,-18.73,-21.43,0,*6A
1512831849.83,24215,4.63,71740.5,-15.37,-18.79,-21.57,0,*66
1512831851.07,24216,4.63,71732.3,-15.37,-18.79,-21.57,0,*65
1512831852.31,24217,4.63,71736.5,-15.35,-18.79,-21.47,0,*67
1512831853.55,24218,4.63,71738.0,-15.35,-18.73,-21.43,0,*66
1512831854.78,24219,4.63,71740.5,-15.37,-18.79,-21.57,0,*6A
1512831856.02,24220,4.63,71740.8,-15.35,-18.73,-21.43,0,*6D
1512831857.24,24221,4.63,71744.5,-15.37,-18.79,-21.47,0,*60
1512831858.48,24222,4.63,71746.3,-15.37,-18.69,-21.57,0,*63
1512831859.71,24223,4.63,71746.8,-15.35,-18.73,-21.43,0,*6E
1512831860.98,24224,4.63,71746.0,-15.35,-18.73,-21.53,0,*68
1512831862.2,24225,4.63,71744.0,-15.37,-18.69,-21.47,0,*65
1512831863.46,24226,4.63,71732.5,-15.35,-18.73,-21.53,0,*6A
1512831864.72,24227,4.63,71742.5,-15.35,-18.79,-21.57,0,*65
1512831865.98,24228,4.63,71742.8,-15.35,-18.73,-21.57,0,*60
1512831867.2,24229,4.63,71740.3,-15.37,-18.79,-21.63,0,*6E
1512831868.46,24230,4.63,71736.5,-15.35,-18.65,-21.57,0,*6E
1512831869.72,24231,4.63,71744.0,-15.35,-18.65,-21.53,0,*6B
1512831870.99,24232,4.63,71740.0,-15.35,-18.65,-21.67,0,*6F
1512831872.26,24233,4.63,71742.0,-15.35,-18.73,-21.67,0,*69
1512831873.47,24234,4.63,71740.5,-15.37,-18.79,-21.63,0,*62
1512831874.73,24235,4.63,71736.3,-15.35,-18.73,-21.57,0,*6C
1512831875.99,24236,4.63,71732.3,-15.35,-18.73,-21.57,0,*6F
1512831877.24,24237,4.63,71742.5,-15.37,-18.65,-21.67,0,*68
1512831878.51,24238,4.63,71736.0,-15.35,-18.79,-21.67,0,*68
1512831879.78,24239,4.63,71736.5,-15.35,-18.79,-21.67,0,*69
1512831881.05,24240,4.63,71742.0,-15.35,-18.79,-21.67,0,*67
1512831882.31,24241,4.63,71740.5,-15.35,-18.79,-21.67,0,*66
1512831883.58,24242,4.63,71742.0,-15.35,-18.79,-21.67,0,*65
1512831884.85,24243,4.63,71744.5,-15.35,-18.65,-21.67,0,*69
1512831886.07,24244,4.63,71744.8,-15.37,-18.79,-21.77,0,*60
1512831887.3,24245,4.63,71748.5,-15.35,-18.65,-21.73,0,*6A
1512831888.54,24246,4.63,71744.8,-15.35,-18.79,-21.73,0,*64
1512831889.81,24247,4.63,71740.5,-15.35,-18.79,-21.83,0,*6A
1512831891.03,24248,4.63,71744.0,-15.37,-18.69,-21.77,0,*6D
1512831892.26,24249,4.63,71746.3,-15.35,-18.73,-21.73,0,*61
1512831893.52,24250,4.63,71744.8,-15.35,-18.65,-21.57,0,*68
1512831894.78,24251,4.63,71750.0,-15.35,-18.73,-21.83,0,*67
1512831896.03,24252,4.63,71744.0,-15.37,-18.79,-21.87,0,*68
1512831897.3,24253,4.63,71746.3,-15.35,-18.79,-21.83,0,*6F
1512831898.53,24254,4.63,71748.8,-15.35,-18.73,-21.73,0,*6D
1512831899.78,24255,4.63,71748.5,-15.37,-18.79,-21.87,0,*6F
1512831901.0,24256,4.63,71748.0,-15.37,-18.79,-21.93,0,*69
1512831902.22,24257,4.63,71750.8,-15.37,-18.79,-21.93,0,*68
1512831903.46,24258,4.63,71748.0,-15.37,-18.83,-21.87,0,*67
1512831904.68,24259,4.63,71758.0,-15.37,-18.79,-21.93,0,*66
1512831905.93,24260,4.63,71748.3,-15.37,-18.93,-21.93,0,*68
1512831907.18,24261,4.63,71742.0,-15.37,-18.93,-21.93,0,*69
1512831908.42,24262,4.63,71750.8,-15.35,-18.83,-21.93,0,*69
1512831909.66,24263,4.63,71750.5,-15.37,-18.79,-21.87,0,*6A
1512831910.88,24264,4.63,71744.3,-15.37,-18.83,-21.93,0,*6D
1512831912.15,24265,4.63,71748.0,-15.35,-18.79,-21.87,0,*6E
1512831913.37,24266,4.63,71752.0,-15.37,-18.83,-21.93,0,*6F
1512831914.59,24267,4.63,71748.0,-15.37,-18.83,-21.93,0,*6E
1512831915.81,24268,4.63,71740.8,-15.37,-18.83,-21.93,0,*61
1512831917.1,24269,4.63,71748.8,-15.35,-18.89,-21.87,0,*6D
1512831918.36,24270,4.63,71754.3,-15.35,-18.79,-21.97,0,*6B
1512831919.61,24271,4.63,71746.3,-15.37,-18.93,-21.93,0,*68
1512831920.83,24272,4.63,71750.3,-15.37,-18.83,-21.93,0,*6A
1512831922.04,24273,4.63,71752.5,-15.37,-18.79,-22.03,0,*64
1512831923.26,24274,4.63,71752.0,-15.37,-18.79,-22.03,0,*63
1512831924.52,24275,4.63,71748.8,-15.35,-18.89,-22.03,0,*6F
1512831925.74,24276,4.63,71756.5,-15.37,-18.83,-22.03,0,*64
1512831927.02,24277,4.63,71756.3,-15.35,-18.89,-21.97,0,*63
1512831928.26,24278,4.63,71754.8,-15.35,-18.79,-22.03,0,*6D
1512831929.48,24279,4.63,71758.0,-15.37,-18.83,-22.03,0,*6B
1512831930.72,24280,4.63,71758.5,-15.37,-18.93,-22.07,0,*68
1512831931.94,24281,4.63,71754.5,-15.37,-18.83,-22.07,0,*68
1512831933.21,24282,4.63,71756.8,-15.35,-18.79,-21.87,0,*67
1512831934.45,24283,4.63,71756.5,-15.37,-18.93,-22.07,0,*6B
1512831935.7,24284,4.63,71758.8,-15.37,-18.93,-22.07,0,*6C
1512831936.91,24285,4.63,71758.0,-15.37,-18.83,-22.03,0,*68
1512831938.18,24286,4.63,71762.3,-15.35,-18.79,-21.97,0,*62
1512831939.42,24287,4.63,71758.0,-15.35,-18.79,-22.03,0,*6D
1512831940.63,24288,4.63,71758.8,-15.37,-18.83,-22.07,0,*61
1512831941.89,24289,4.63,71756.8,-15.35,-18.89,-22.03,0,*6C
1512831943.13,24290,4.63,71766.8,-15.37,-18.89,-22.07,0,*62
1512831944.37,24291,4.63,71762.8,-15.37,-18.93,-22.07,0,*68
1512831945.62,24292,4.63,71760.5,-15.37,-18.93,-22.03,0,*6F
1512831946.83,24293,4.63,71760.0,-15.37,-18.83,-22.07,0,*6B
1512831948.13,24294,4.63,71760.0,-15.35,-18.89,-22.17,0,*65
1512831949.39,24295,4.63,71756.3,-15.37,-18.93,-22.21,0,*68
1512831950.66,24296,4.63,71762.3,-15.37,-18.93,-22.21,0,*6B
1512831951.92,24297,4.63,71758.0,-15.35,-18.89,-22.11,0,*60
1512831953.19,24298,4.63,71756.3,-15.37,-18.93,-22.21,0,*65
1512831954.43,24299,4.63,71760.5,-15.35,-18.79,-22.07,0,*66
1512831955.67,24300,4.63,71762.5,-15.37,-18.93,-22.07,0,*61
1512831956.95,24301,4.63,71764.5,-15.37,-18.93,-22.17,0,*61
1512831958.22,24302,4.63,71764.5,-15.35,-18.79,-22.17,0,*64
1512831959.48,24303,4.63,71760.3,-15.37,-18.93,-22.21,0,*66
1512831960.75,24304,4.63,71758.8,-15.37,-18.93,-22.21,0,*61
1512831961.97,24305,4.63,71758.5,-15.37,-18.83,-22.07,0,*65
1512831963.24,24306,4.63,71760.8,-15.35,-18.79,-22.17,0,*60
1512831964.52,24307,4.63,71760.0,-15.35,-18.89,-22.21,0,*6B
1512831965.8,24308,4.63,71760.3,-15.35,-18.89,-22.21,0,*64
1512831967.07,24309,4.63,71760.0,-15.37,-18.93,-22.21,0,*6C
1512831968.34,24310,4.63,71762.8,-15.35,-18.79,-22.21,0,*62
1512831969.63,24311,4.63,71760.3,-15.35,-18.89,-22.17,0,*69
1512831970.91,24312,4.63,71762.8,-15.35,-18.89,-22.21,0,*6F
1512831972.15,24313,4.63,71762.5,-15.37,-18.83,-22.21,0,*66
1512831973.39,24314,4.63,71758.8,-15.37,-18.89,-22.27,0,*6D
1512831974.63,24315,4.63,71756.0,-15.37,-18.93,-22.27,0,*67
1512831975.92,24316,4.63,71758.8,-15.35,-18.89,-22.21,0,*6B
1512831977.2,24317,4.63,71762.0,-15.35,-18.89,-22.21,0,*6A
1512831978.44,24318,4.63,71758.5,-15.37,-18.93,-22.27,0,*6A
1512831979.69,24319,4.63,71756.5,-15.37,-18.93,-22.27,0,*6B
1512831980.98,24320,4.63,71760.3,-15.35,-18.89,-22.17,0,*6B
1512831982.25,24321,4.63,71750.3,-15.37,-18.93,-22.21,0,*66
1512831983.53,24322,4.63,71750.5,-15.35,-18.89,-22.21,0,*6C
1512831984.81,24323,4.63,71754.8,-15.35,-18.89,-22.21,0,*6D
1512831986.1,24324,4.63,71758.3,-15.35,-18.89,-22.17,0,*6F
1512831987.39,24325,4.63,71758.3,-15.35,-18.89,-22.21,0,*6B
1512831988.63,24326,4.63,71762.5,-15.37,-18.93,-22.27,0,*67
1512831989.91,24327,4.63,71764.0,-15.35,-18.89,-22.21,0,*69
1512831991.2,24328,4.63,71762.3,-15.35,-18.89,-22.17,0,*63
1512831992.49,24329,4.63,71764.3,-15.35,-18.89,-22.21,0,*67
1512831993.76,24330,4.63,71762.5,-15.37,-18.93,-22.21,0,*66
1512831995.0,24331,4.63,71762.5,-15.37,-18.93,-22.27,0,*61
1512831996.27,24332,4.63,71756.5,-15.37,-18.93,-22.21,0,*64
1512831997.54,24333,4.63,71758.0,-15.37,-18.93,-22.21,0,*65
1512831998.8,24334,4.63,71760.0,-15.37,-18.93,-22.21,0,*62
1512832000.08,24335,4.63,71762.8,-15.37,-18.93,-22.17,0,*66
1512832001.32,24336,4.63,71760.8,-15.35,-18.79,-22.11,0,*65
1512832002.59,24337,4.63,71762.0,-15.37,-18.93,-22.17,0,*64
1512832003.85,24338,4.63,71760.8,-15.35,-18.89,-22.11,0,*64
1512832005.09,24339,4.63,71762.3,-15.37,-18.93,-22.07,0,*6B
1512832006.37,24340,4.63,71762.3,-15.37,-18.93,-22.17,0,*64
1512832007.64,24341,4.63,71762.3,-15.35,-18.73,-21.87,0,*63
1512832008.9,24342,4.63,71762.3,-15.31,-18.73,-21.97,0,*65
1512832010.17,24343,4.63,71764.0,-15.35,-18.65,-21.87,0,*66
1512832011.39,24344,4.63,71764.8,-15.37,-18.83,-22.03,0,*64
1512832012.67,24345,4.63,71764.8,-15.35,-18.89,-21.97,0,*63
1512832013.95,24346,4.63,71762.8,-15.35,-18.89,-21.97,0,*60
1512832015.24,24347,4.63,71766.8,-15.35,-18.89,-21.97,0,*61
1512832016.52,24348,4.63,71764.3,-15.35,-18.89,-21.97,0,*6E
1512832017.78,24349,4.63,71764.3,-15.35,-18.79,-21.97,0,*60
1512832019.07,24350,4.63,71768.3,-15.35,-18.89,-21.97,0,*67
1512832020.33,24351,4.63,71766.0,-15.37,-18.89,-21.97,0,*64
1512832021.62,24352,4.63,71766.3,-15.35,-18.89,-21.87,0,*64
1512832022.9,24353,4.63,71766.0,-15.35,-18.89,-21.97,0,*64
1512832024.14,24354,4.63,71768.5,-15.37,-18.89,-21.93,0,*65
1512832025.36,24355,4.63,71768.5,-15.37,-18.83,-21.93,0,*6E
1512832026.6,24356,4.63,71770.8,-15.37,-18.93,-21.93,0,*6C
1512832027.85,24357,4.63,71770.0,-15.37,-18.93,-21.93,0,*6D
1512832029.14,24358,4.63,71770.5,-15.35,-18.89,-21.87,0,*6E
1512832030.43,24359,4.63,71772.3,-15.35,-18.89,-21.87,0,*6F
1512832031.72,24360,4.63,71772.5,-15.35,-18.89,-21.87,0,*65
1512832033.01,24361,4.63,71772.3,-15.35,-18.89,-21.87,0,*64
1512832034.23,24362,4.63,71772.8,-15.37,-18.83,-21.93,0,*6A
1512832035.51,24363,4.63,71770.5,-15.35,-18.89,-21.83,0,*62
1512832036.8,24364,4.63,71772.5,-15.35,-18.89,-21.83,0,*65
1512832038.04,24365,4.63,71772.5,-15.37,-18.83,-21.87,0,*68
1512832039.28,24366,4.63,71768.8,-15.37,-18.89,-21.73,0,*6A
1512832040.51,24367,4.63,71770.5,-15.37,-18.93,-21.73,0,*60
1512832041.77,24368,4.63,71770.5,-15.35,-18.89,-21.73,0,*66
1512832043.0,24369,4.63,71772.0,-15.35,-18.79,-21.73,0,*68
1512832044.22,24370,4.63,71770.8,-15.37,-18.83,-21.73,0,*67
1512832045.48,24371,4.63,71768.8,-15.35,-18.79,-21.57,0,*67
1512832046.77,24372,4.63,71776.0,-15.35,-18.89,-21.67,0,*68
1512832048.06,24373,4.63,71770.8,-15.35,-18.89,-21.67,0,*69
1512832049.33,24374,4.63,71770.5,-15.31,-18.79,-21.67,0,*65
1512832050.54,24375,4.63,71774.8,-15.37,-18.83,-21.73,0,*62
1512832051.81,24376,4.63,71770.8,-15.35,-18.79,-21.67,0,*63
1512832053.02,24377,4.63,71770.8,-15.37,-18.83,-21.63,0,*61
1512832054.31,24378,4.63,71772.5,-15.35,-18.89,-21.53,0,*65
1512832055.57,24379,4.63,71770.3,-15.35,-18.79,-21.53,0,*6B
1512832056.84,24380,4.63,71774.3,-15.35,-18.79,-21.57,0,*69
1512832058.1,24381,4.63,71768.3,-15.35,-18.79,-21.57,0,*68
1512832059.36,24382,4.63,71768.5,-15.35,-18.79,-21.53,0,*6F
1512832060.63,24383,4.63,71772.0,-15.35,-18.73,-21.53,0,*64
1512832061.89,24384,4.63,71768.3,-15.35,-18.65,-21.53,0,*64
1512832063.16,24385,4.63,71772.8,-15.31,-18.65,-21.53,0,*61
1512832064.42,24386,4.63,71774.3,-15.35,-18.73,-21.53,0,*61
1512832065.66,24387,4.63,71776.8,-15.35,-18.65,-21.43,0,*66
1512832066.9,24388,4.63,71776.0,-15.35,-18.79,-21.43,0,*64
1512832068.16,24389,4.63,71774.8,-15.35,-18.65,-21.53,0,*69
1512832069.42,24390,4.63,71770.8,-15.35,-18.73,-21.53,0,*66
1512832070.69,24391,4.63,71774.3,-15.35,-18.73,-21.53,0,*67
1512832071.93,24392,4.63,71774.0,-15.35,-18.79,-21.43,0,*6F
1512832073.16,24393,4.63,71774.5,-15.35,-18.73,-21.43,0,*64
1512832074.4,24394,4.63,71774.8,-15.35,-18.65,-21.43,0,*64
1512832075.64,24395,4.63,71774.8,-15.37,-18.79,-21.33,0,*6D
1512832076.88,24396,4.63,71772.0,-15.35,-18.65,-21.39,0,*6B
1512832078.15,24397,4.63,71772.0,-15.35,-18.73,-21.27,0,*62
1512832079.39,24398,4.63,71772.5,-15.37,-18.65,-21.33,0,*6D
1512832080.66,24399,4.63,71774.0,-15.35,-18.73,-21.27,0,*6C
1512832081.88,24400,4.63,71770.5,-15.37,-18.69,-21.43,0,*60
1512832083.14,24401,4.63,71772.5,-15.35,-18.65,-21.27,0,*6D
1512832084.41,24402,4.63,71772.3,-15.35,-18.49,-21.27,0,*60
1512832085.65,24403,4.63,71770.3,-15.37,-18.65,-21.33,0,*68
1512832086.92,24404,4.63,71770.0,-15.31,-18.65,-21.27,0,*6C
1512832088.16,24405,4.63,71770.8,-15.35,-18.65,-21.39,0,*66
1512832089.41,24406,4.63,71770.8,-15.35,-18.65,-21.39,0,*65
1512832090.68,24407,4.63,71772.0,-15.35,-18.49,-21.23,0,*61
1512832091.95,24408,4.63,71768.0,-15.37,-18.55,-21.27,0,*65
1512832093.19,24409,4.63,71774.0,-15.37,-18.55,-21.17,0,*67
1512832094.46,24410,4.63,71772.3,-15.35,-18.49,-21.23,0,*67
1512832095.73,24411,4.63,71774.5,-15.35,-18.49,-21.23,0,*66
1512832096.95,24412,4.63,71772.5,-15.37,-18.49,-21.17,0,*60
1512832098.17,24413,4.63,71774.8,-15.37,-18.49,-21.17,0,*61
1512832099.41,24414,4.63,71770.5,-15.35,-18.49,-21.13,0,*60
1512832100.68,24415,4.63,71770.3,-15.37,-18.55,-21.27,0,*69
1512832101.95,24416,4.63,71774.0,-15.37,-18.55,-21.27,0,*6A